{"data":{"norad_id":62715,"intl_designator":"2025-009DL","name":"CONNECTA IOT-7","alt_names":[],"object_type":"PAYLOAD","status":"ACTIVE","operator":null,"country":"TURK","launch_date":"2025-01-14","launch_site_code":"AFWTR","launch_vehicle":null,"mission":null,"orbit_class":"UNKNOWN","rcs_meters":null,"size_class":null,"mass_kg":null,"dimensions":null,"purposes":[],"wikipedia_slug":null,"has_3d_model":false,"image_url":null,"decayed_at":null,"tle_current":{"epoch":"2026-05-25T03:11:20.880384Z","epoch_age_seconds":66854,"freshness":"FRESH","line1":"1 62715U 25009DL  26145.13288056  .00000511  00000+0  53010-4 0  9997","line2":"2 62715  97.7083 224.3185 0000185 113.3148 246.8091 14.94126482 73907","mean_motion":14.94126482,"eccentricity":1.85e-5,"inclination_deg":97.7083,"raan_deg":224.3185,"arg_perigee_deg":113.3148,"mean_anomaly_deg":246.8091,"bstar":5.301e-5,"rev_number":7390,"period_min":96.377382862022,"perigee_km":584.95657029363,"apogee_km":585.21420952205,"semimajor_km":6963.2223899078,"source":"CELESTRAK","updated_at":"2026-05-25T13:38:03.209625Z"}}}